Radiation Dose at Monitoring Post of Fukushima Daini Nuclear Power Station
Date,Time,MP-1(microSv/h),MP-2(microSv/h),MP-3(microSv/h),MP-4(microSv/h),MP-5(microSv/h),MP-6(microSv/h),MP-7(microSv/h),Wind Direction,Wind Velocity(m/s),Rain
2021/05/04,00:00,0.167,0.151,0.243,0.232,0.232,0.130,0.081,west-northwest,3.6,No
2021/05/04,00:10,0.166,0.151,0.241,0.232,0.232,0.130,0.081,west,3.6,No
2021/05/04,00:20,0.166,0.152,0.244,0.232,0.233,0.131,0.081,west,4.0,No
2021/05/04,00:30,0.167,0.152,0.244,0.232,0.231,0.129,0.081,west,6.2,No
2021/05/04,00:40,0.168,0.150,0.244,0.231,0.233,0.130,0.080,west,7.1,No
2021/05/04,00:50,0.167,0.152,0.243,0.231,0.232,0.130,0.080,west,5.6,No
2021/05/04,01:00,0.166,0.150,0.243,0.232,0.233,0.131,0.081,west,6.1,No
2021/05/04,01:10,0.167,0.151,0.244,0.231,0.232,0.129,0.080,west,5.6,No
2021/05/04,01:20,0.165,0.151,0.242,0.232,0.232,0.129,0.081,west,9.5,No
2021/05/04,01:30,0.167,0.151,0.244,0.232,0.233,0.131,0.080,west,10.1,No
2021/05/04,01:40,0.166,0.151,0.243,0.231,0.234,0.130,0.080,west,10.6,No
2021/05/04,01:50,0.166,0.150,0.243,0.233,0.232,0.129,0.080,west,8.4,No
2021/05/04,02:00,0.167,0.151,0.243,0.232,0.233,0.129,0.081,west-southwest,7.6,No
2021/05/04,02:10,0.166,0.150,0.242,0.231,0.232,0.130,0.081,west,7.1,No
2021/05/04,02:20,0.167,0.151,0.243,0.233,0.232,0.130,0.081,west-southwest,7.2,No
2021/05/04,02:30,0.167,0.151,0.244,0.231,0.233,0.129,0.081,west,5.8,No
2021/05/04,02:40,0.167,0.151,0.243,0.232,0.232,0.130,0.081,west-southwest,9.3,No
2021/05/04,02:50,0.167,0.151,0.244,0.231,0.233,0.131,0.080,west-southwest,5.4,No
2021/05/04,03:00,0.167,0.151,0.243,0.232,0.233,0.130,0.080,west,5.5,No
2021/05/04,03:10,0.166,0.150,0.243,0.233,0.233,0.130,0.080,west,5.3,No
2021/05/04,03:20,0.166,0.151,0.242,0.232,0.235,0.130,0.081,west-southwest,4.3,No
2021/05/04,03:30,0.167,0.151,0.242,0.232,0.233,0.129,0.080,west,4.4,No
2021/05/04,03:40,0.167,0.151,0.244,0.232,0.232,0.131,0.080,west-southwest,3.4,No
2021/05/04,03:50,0.166,0.151,0.242,0.231,0.232,0.131,0.081,southwest,4.7,No
2021/05/04,04:00,0.167,0.151,0.245,0.232,0.233,0.131,0.081,southwest,4.4,No
2021/05/04,04:10,0.167,0.152,0.244,0.232,0.233,0.130,0.081,southwest,6.2,No
2021/05/04,04:20,0.166,0.152,0.243,0.231,0.232,0.130,0.081,southwest,5.4,No
2021/05/04,04:30,0.167,0.150,0.243,0.231,0.232,0.131,0.081,southwest,6.4,No
2021/05/04,04:40,0.167,0.151,0.243,0.232,0.233,0.130,0.081,southwest,6.0,No
2021/05/04,04:50,0.167,0.151,0.243,0.233,0.232,0.130,0.081,west-southwest,6.7,No
2021/05/04,05:00,0.166,0.152,0.244,0.231,0.234,0.130,0.081,west-southwest,7.0,No
2021/05/04,05:10,0.167,0.151,0.243,0.233,0.234,0.130,0.081,southwest,5.2,No
2021/05/04,05:20,0.167,0.151,0.242,0.232,0.232,0.131,0.081,southwest,4.8,No
2021/05/04,05:30,0.167,0.151,0.243,0.232,0.233,0.131,0.082,southwest,5.4,No
2021/05/04,05:40,0.167,0.151,0.243,0.232,0.232,0.132,0.081,southwest,5.3,No
2021/05/04,05:50,0.167,0.152,0.242,0.231,0.232,0.130,0.081,south-southwest,4.1,No
2021/05/04,06:00,0.166,0.150,0.244,0.231,0.233,0.130,0.081,south-southwest,4.6,No
2021/05/04,06:10,0.168,0.152,0.244,0.233,0.231,0.129,0.080,south-southwest,4.6,No
2021/05/04,06:20,0.168,0.151,0.243,0.231,0.234,0.130,0.080,south-southwest,4.1,No
2021/05/04,06:30,0.167,0.151,0.243,0.232,0.232,0.129,0.081,southwest,5.1,No
2021/05/04,06:40,0.168,0.151,0.242,0.232,0.233,0.130,0.080,west-southwest,4.4,No
2021/05/04,06:50,0.167,0.152,0.242,0.231,0.231,0.130,0.081,west-southwest,3.3,No
2021/05/04,07:00,0.166,0.150,0.244,0.233,0.234,0.130,0.081,southwest,4.0,No
2021/05/04,07:10,0.168,0.151,0.242,0.231,0.231,0.130,0.081,southwest,3.3,No
2021/05/04,07:20,0.167,0.150,0.241,0.232,0.233,0.131,0.081,south-southwest,2.5,No
2021/05/04,07:30,0.167,0.149,0.242,0.230,0.231,0.131,0.080,south-southwest,2.4,No
2021/05/04,07:40,0.166,0.151,0.241,0.229,0.233,0.130,0.080,southwest,3.6,No
2021/05/04,07:50,0.167,0.150,0.242,0.231,0.232,0.130,0.081,southwest,2.9,No
2021/05/04,08:00,0.167,0.151,0.242,0.229,0.233,0.130,0.081,west-southwest,1.7,No
2021/05/04,08:10,0.166,0.150,0.240,0.230,0.230,0.130,0.080,west-southwest,3.5,No
2021/05/04,08:20,0.167,0.149,0.243,0.232,0.233,0.130,0.080,west-southwest,5.1,No
2021/05/04,08:30,0.166,0.152,0.243,0.230,0.231,0.130,0.080,southwest,1.4,No
2021/05/04,08:40,0.165,0.151,0.241,0.229,0.231,0.131,0.080,west-southwest,3.7,No
2021/05/04,08:50,0.167,0.150,0.240,0.232,0.233,0.131,0.081,southwest,4.2,No
2021/05/04,09:00,0.166,0.151,0.243,0.230,0.232,0.129,0.080,west-southwest,4.9,No
2021/05/04,09:10,0.165,0.151,0.243,0.230,0.230,0.130,0.080,west,4.2,No
2021/05/04,09:20,0.167,0.150,0.243,0.230,0.232,0.131,0.081,west-southwest,5.4,No
2021/05/04,09:30,0.166,0.150,0.239,0.233,0.233,0.130,0.079,west-southwest,5.7,No
2021/05/04,09:40,0.166,0.151,0.241,0.231,0.233,0.129,0.079,west,6.2,No
2021/05/04,09:50,0.166,0.150,0.244,0.230,0.230,0.130,0.080,west,7.1,No
2021/05/04,10:00,0.167,0.151,0.244,0.227,0.230,0.130,0.082,west-southwest,6.8,No
2021/05/04,10:10,0.166,0.152,0.242,0.231,0.234,0.130,0.081,southwest,5.5,No
2021/05/04,10:20,0.165,0.152,0.241,0.232,0.233,0.130,0.080,southwest,5.7,No
2021/05/04,10:30,0.168,0.151,0.244,0.232,0.231,0.131,0.080,southwest,7.1,No
2021/05/04,10:40,0.166,0.150,0.245,0.230,0.231,0.131,0.080,west-southwest,5.3,No
2021/05/04,10:50,0.166,0.150,0.242,0.228,0.231,0.131,0.080,southwest,6.9,No
2021/05/04,11:00,0.165,0.151,0.242,0.232,0.229,0.130,0.081,west-southwest,5.6,No
2021/05/04,11:10,0.165,0.152,0.241,0.234,0.232,0.129,0.081,west-southwest,7.9,No
2021/05/04,11:20,0.168,0.151,0.242,0.232,0.233,0.130,0.081,west-southwest,7.2,No
2021/05/04,11:30,0.167,0.151,0.241,0.231,0.233,0.130,0.081,west-southwest,7.2,No
2021/05/04,11:40,0.166,0.149,0.241,0.230,0.232,0.131,0.080,west-southwest,7.4,No
2021/05/04,11:50,0.165,0.151,0.245,0.230,0.231,0.131,0.081,west-southwest,7.3,No
2021/05/04,12:00,0.166,0.152,0.246,0.232,0.231,0.130,0.081,southwest,5.2,No
2021/05/04,12:10,0.165,0.152,0.245,0.233,0.230,0.129,0.081,west-southwest,7.6,No
2021/05/04,12:20,0.167,0.150,0.244,0.233,0.231,0.131,0.082,west-southwest,5.1,No
2021/05/04,12:30,0.167,0.151,0.243,0.233,0.232,0.131,0.081,southwest,4.0,No
2021/05/04,12:40,0.168,0.151,0.242,0.231,0.231,0.130,0.081,west-southwest,4.7,No
2021/05/04,12:50,0.167,0.150,0.242,0.232,0.231,0.129,0.080,west-southwest,2.9,No
2021/05/04,13:00,0.166,0.150,0.241,0.231,0.231,0.130,0.080,south-southeast,6.6,No
2021/05/04,13:10,0.166,0.151,0.242,0.231,0.230,0.130,0.081,south,5.3,No
2021/05/04,13:20,0.166,0.152,0.244,0.231,0.232,0.131,0.081,south-southeast,6.8,No
2021/05/04,13:30,0.165,0.152,0.243,0.234,0.231,0.132,0.081,south-southeast,6.3,No
2021/05/04,13:40,0.168,0.152,0.243,0.234,0.230,0.131,0.080,south,7.7,No
2021/05/04,13:50,0.168,0.151,0.243,0.232,0.234,0.131,0.081,south-southeast,7.1,No
2021/05/04,14:00,0.167,0.153,0.247,0.232,0.234,0.131,0.081,south,7.5,No
2021/05/04,14:10,0.166,0.153,0.247,0.233,0.234,0.131,0.080,south,7.5,No
2021/05/04,14:20,0.166,0.153,0.244,0.235,0.233,0.132,0.081,south-southeast,6.6,No
2021/05/04,14:30,0.165,0.150,0.245,0.234,0.231,0.131,0.080,south,7.8,No
2021/05/04,14:40,0.168,0.152,0.243,0.232,0.231,0.130,0.081,south-southeast,7.0,No
2021/05/04,14:50,0.169,0.153,0.243,0.230,0.235,0.132,0.081,south,7.3,No
2021/05/04,15:00,0.168,0.151,0.247,0.234,0.234,0.131,0.081,south-southeast,7.7,No
2021/05/04,15:10,0.165,0.152,0.248,0.235,0.233,0.130,0.080,south-southeast,5.6,No
2021/05/04,15:20,0.166,0.152,0.244,0.233,0.231,0.131,0.082,south-southeast,7.1,No
2021/05/04,15:30,0.169,0.152,0.244,0.233,0.230,0.131,0.081,south,6.9,No
2021/05/04,15:40,0.169,0.153,0.246,0.235,0.234,0.130,0.081,south,7.2,No
2021/05/04,15:50,0.167,0.152,0.244,0.232,0.234,0.131,0.081,south,5.5,No
2021/05/04,16:00,0.166,0.151,0.246,0.234,0.233,0.131,0.081,south-southeast,5.8,No
2021/05/04,16:10,0.168,0.153,0.248,0.235,0.231,0.131,0.082,south-southeast,5.8,No
2021/05/04,16:20,0.167,0.152,0.245,0.234,0.234,0.131,0.080,south,5.6,No
2021/05/04,16:30,0.167,0.153,0.247,0.235,0.234,0.131,0.082,south,6.3,No
2021/05/04,16:40,0.170,0.151,0.246,0.233,0.231,0.131,0.081,south-southeast,6.2,No
2021/05/04,16:50,0.166,0.152,0.246,0.235,0.233,0.131,0.081,south-southeast,6.0,No
2021/05/04,17:00,0.167,0.152,0.246,0.232,0.235,0.131,0.081,south,6.2,No
2021/05/04,17:10,0.168,0.152,0.246,0.234,0.232,0.130,0.081,south,6.8,No
2021/05/04,17:20,0.167,0.152,0.246,0.235,0.233,0.131,0.081,south,6.9,No
2021/05/04,17:30,0.168,0.152,0.246,0.234,0.236,0.131,0.083,south,7.2,No
2021/05/04,17:40,0.166,0.152,0.246,0.233,0.233,0.131,0.081,south,7.1,No
2021/05/04,17:50,0.168,0.152,0.244,0.233,0.235,0.131,0.082,south-southeast,7.0,No
2021/05/04,18:00,0.167,0.152,0.248,0.235,0.234,0.131,0.082,south,7.5,No
2021/05/04,18:10,0.168,0.153,0.245,0.234,0.236,0.130,0.081,south,7.3,No
2021/05/04,18:20,0.168,0.152,0.247,0.235,0.233,0.131,0.081,south,7.9,No
2021/05/04,18:30,0.167,0.153,0.245,0.234,0.236,0.131,0.081,south,8.4,No
2021/05/04,18:40,0.168,0.152,0.247,0.236,0.233,0.131,0.081,south-southwest,6.4,No
2021/05/04,18:50,0.168,0.152,0.246,0.233,0.235,0.132,0.082,south,6.7,No
2021/05/04,19:00,0.167,0.152,0.246,0.236,0.233,0.131,0.081,south,7.1,No
2021/05/04,19:10,0.168,0.152,0.246,0.234,0.235,0.131,0.081,south,6.7,No
2021/05/04,19:20,0.167,0.152,0.245,0.234,0.232,0.131,0.082,south,6.7,No
2021/05/04,19:30,0.168,0.153,0.247,0.234,0.235,0.131,0.081,south,7.0,No
2021/05/04,19:40,0.167,0.153,0.246,0.235,0.232,0.131,0.080,south,6.3,No
2021/05/04,19:50,0.168,0.153,0.247,0.234,0.236,0.130,0.081,south,6.4,No
2021/05/04,20:00,0.167,0.152,0.245,0.234,0.232,0.130,0.082,south,6.2,No
2021/05/04,20:10,0.168,0.152,0.247,0.235,0.234,0.131,0.082,south,5.9,No
2021/05/04,20:20,0.168,0.152,0.246,0.233,0.232,0.131,0.081,south,6.1,No
2021/05/04,20:30,0.168,0.153,0.247,0.235,0.235,0.131,0.082,south,5.7,No
2021/05/04,20:40,0.168,0.152,0.246,0.233,0.233,0.131,0.081,south,4.5,No
2021/05/04,20:50,0.169,0.153,0.246,0.235,0.234,0.131,0.081,south-southwest,4.6,No
2021/05/04,21:00,0.167,0.153,0.247,0.235,0.233,0.131,0.082,south-southwest,4.2,No
2021/05/04,21:10,0.168,0.153,0.247,0.235,0.234,0.130,0.081,south-southwest,3.0,No
2021/05/04,21:20,0.166,0.154,0.246,0.235,0.234,0.131,0.081,south-southwest,3.3,No
2021/05/04,21:30,0.168,0.152,0.248,0.234,0.234,0.132,0.082,southwest,1.4,No
2021/05/04,21:40,0.167,0.153,0.246,0.236,0.236,0.131,0.082,west-southwest,1.6,No
2021/05/04,21:50,0.170,0.154,0.247,0.234,0.233,0.131,0.082,west,2.3,No
2021/05/04,22:00,0.169,0.153,0.246,0.235,0.235,0.132,0.082,-,CALM,No
2021/05/04,22:10,0.168,0.152,0.246,0.235,0.235,0.132,0.082,-,CALM,No
2021/05/04,22:20,0.169,0.153,0.247,0.234,0.235,0.131,0.082,-,CALM,No
2021/05/04,22:30,0.168,0.154,0.246,0.236,0.235,0.132,0.082,south-southeast,1.3,No
2021/05/04,22:40,0.169,0.154,0.247,0.234,0.235,0.131,0.082,south-southwest,1.5,No
2021/05/04,22:50,0.168,0.154,0.246,0.235,0.234,0.133,0.082,south-southwest,3.0,No
2021/05/04,23:00,0.169,0.154,0.248,0.235,0.234,0.132,0.082,south,3.9,No
2021/05/04,23:10,0.169,0.153,0.247,0.234,0.236,0.132,0.082,south,3.5,No
2021/05/04,23:20,0.168,0.153,0.247,0.236,0.233,0.132,0.081,south,3.3,No
2021/05/04,23:30,0.169,0.153,0.247,0.234,0.236,0.132,0.082,south-southwest,4.6,No
2021/05/04,23:40,0.167,0.152,0.249,0.234,0.233,0.132,0.081,south-southwest,4.9,No
2021/05/04,23:50,0.169,0.153,0.246,0.235,0.235,0.133,0.082,south-southwest,2.6,No
